Time,TemperatureF,DewpointF,PressureIn,WindDirection,WindDirectionDegrees,WindSpeedMPH,WindSpeedGustMPH,Humidity,HourlyPrecipIn,Conditions,Clouds,dailyrainin,SoftwareType,DateUTC
2013-03-07 00:02:00,34.0,31.0,29.85,NNE,29,9.0,20.0,90,0.01,,,0.02,,2013-03-07 05:02:00,
2013-03-07 00:12:00,34.0,31.0,29.85,NNE,29,9.0,20.0,90,0.01,,,0.02,,2013-03-07 05:12:00,
2013-03-07 00:22:00,34.0,32.0,29.85,North,10,10.0,20.0,91,0.00,,,0.03,,2013-03-07 05:22:00,
2013-03-07 00:32:00,34.0,31.0,29.85,NNE,30,8.0,15.0,90,0.00,,,0.03,,2013-03-07 05:32:00,
2013-03-07 00:42:00,34.0,31.0,29.85,NNE,30,8.0,15.0,90,0.00,,,0.03,,2013-03-07 05:42:00,
2013-03-07 00:52:00,34.0,31.0,29.85,North,0,10.0,24.0,89,0.01,,,0.03,,2013-03-07 05:52:00,
2013-03-07 01:01:00,34.0,32.0,29.85,NNE,33,8.0,20.0,92,0.00,,,0.04,,2013-03-07 06:01:00,
2013-03-07 01:11:00,34.0,32.0,29.85,NNE,33,8.0,20.0,92,0.00,,,0.04,,2013-03-07 06:11:00,
2013-03-07 01:21:00,34.0,32.0,29.85,NNE,13,10.0,21.0,93,0.02,,,0.04,,2013-03-07 06:21:00,
2013-03-07 01:32:00,33.0,32.0,29.86,North,11,7.0,15.0,95,0.01,,,0.04,,2013-03-07 06:32:00,
2013-03-07 01:42:00,33.0,32.0,29.86,NNE,23,8.0,17.0,95,0.01,,,0.04,,2013-03-07 06:42:00,
2013-03-07 01:51:00,33.0,32.0,29.86,NNE,23,8.0,17.0,95,0.01,,,0.04,,2013-03-07 06:51:00,
2013-03-07 02:01:00,33.0,32.0,29.86,North,6,6.0,17.0,95,0.01,,,0.05,,2013-03-07 07:01:00,
2013-03-07 02:11:00,33.0,32.0,29.86,North,6,6.0,17.0,95,0.01,,,0.05,,2013-03-07 07:11:00,
2013-03-07 02:21:00,33.0,32.0,29.85,NNE,19,7.0,12.0,96,0.01,,,0.05,,2013-03-07 07:21:00,
2013-03-07 02:32:00,33.0,32.0,29.85,NNE,18,7.0,15.0,96,0.01,,,0.05,,2013-03-07 07:32:00,
2013-03-07 02:42:00,33.0,32.0,29.85,NNE,18,7.0,15.0,96,0.01,,,0.05,,2013-03-07 07:42:00,
2013-03-07 02:52:00,33.0,32.0,29.85,North,5,6.0,18.0,96,0.02,,,0.06,,2013-03-07 07:52:00,
2013-03-07 03:03:00,33.0,32.0,29.85,NNE,20,6.0,20.0,96,0.01,,,0.06,,2013-03-07 08:03:00,
2013-03-07 03:12:00,33.0,32.0,29.85,NNE,20,6.0,20.0,96,0.01,,,0.06,,2013-03-07 08:12:00,
2013-03-07 03:23:00,33.0,32.0,29.85,NNE,16,7.0,17.0,95,0.01,,,0.06,,2013-03-07 08:23:00,
2013-03-07 03:33:00,33.0,32.0,29.85,NNE,14,6.0,17.0,95,0.01,,,0.06,,2013-03-07 08:33:00,
2013-03-07 03:44:00,33.0,32.0,29.85,NNE,14,6.0,17.0,95,0.01,,,0.06,,2013-03-07 08:44:00,
2013-03-07 03:53:00,33.0,31.0,29.86,North,357,9.0,16.0,93,0.00,,,0.06,,2013-03-07 08:53:00,
2013-03-07 04:03:00,33.0,30.0,29.86,NNE,16,10.0,17.0,90,0.01,,,0.07,,2013-03-07 09:03:00,
2013-03-07 04:13:00,33.0,30.0,29.86,NNE,16,10.0,17.0,90,0.01,,,0.07,,2013-03-07 09:13:00,
2013-03-07 04:23:00,33.0,30.0,29.87,North,10,9.0,16.0,87,0.01,,,0.07,,2013-03-07 09:23:00,
2013-03-07 04:33:00,34.0,30.0,29.87,NE,44,9.0,21.0,84,0.01,,,0.07,,2013-03-07 09:33:00,
2013-03-07 04:43:00,34.0,30.0,29.87,NE,44,9.0,21.0,84,0.01,,,0.07,,2013-03-07 09:43:00,
2013-03-07 04:52:00,34.0,29.0,29.88,NNE,21,9.0,13.0,82,0.01,,,0.07,,2013-03-07 09:52:00,
2013-03-07 05:03:00,34.0,28.0,29.88,NNE,15,10.0,24.0,79,0.00,,,0.07,,2013-03-07 10:03:00,
2013-03-07 05:13:00,34.0,28.0,29.88,NNE,15,10.0,24.0,79,0.00,,,0.07,,2013-03-07 10:13:00,
2013-03-07 05:23:00,34.0,28.0,29.89,NNE,26,10.0,20.0,79,0.00,,,0.07,,2013-03-07 10:23:00,
2013-03-07 05:33:00,34.0,29.0,29.89,North,350,5.0,14.0,81,0.01,,,0.08,,2013-03-07 10:33:00,
2013-03-07 05:42:00,34.0,29.0,29.89,North,350,5.0,14.0,81,0.01,,,0.08,,2013-03-07 10:42:00,
2013-03-07 05:52:00,33.0,29.0,29.90,North,11,3.0,21.0,84,0.01,,,0.08,,2013-03-07 10:52:00,
2013-03-07 06:03:00,32.0,29.0,29.90,North,356,4.0,14.0,90,0.01,,,0.08,,2013-03-07 11:03:00,
2013-03-07 06:12:00,32.0,29.0,29.90,North,356,4.0,14.0,90,0.01,,,0.08,,2013-03-07 11:12:00,
2013-03-07 06:23:00,32.0,30.0,29.90,NNE,24,5.0,16.0,92,0.01,,,0.08,,2013-03-07 11:23:00,
2013-03-07 06:33:00,33.0,29.0,29.91,North,8,5.0,13.0,84,0.00,,,0.08,,2013-03-07 11:33:00,
2013-03-07 06:43:00,33.0,29.0,29.91,North,8,5.0,13.0,84,0.00,,,0.08,,2013-03-07 11:43:00,
2013-03-07 06:53:00,34.0,29.0,29.91,NE,40,13.0,22.0,81,0.00,,,0.08,,2013-03-07 11:53:00,
2013-03-07 07:03:00,34.0,29.0,29.92,North,9,7.0,18.0,82,0.00,,,0.08,,2013-03-07 12:03:00,
2013-03-07 07:12:00,34.0,29.0,29.92,North,9,7.0,18.0,82,0.00,,,0.08,,2013-03-07 12:12:00,
2013-03-07 07:23:00,33.0,29.0,29.93,NE,38,5.0,17.0,84,0.00,,,0.08,,2013-03-07 12:23:00,
2013-03-07 07:33:00,33.0,29.0,29.93,North,2,13.0,22.0,85,0.00,,,0.08,,2013-03-07 12:33:00,
2013-03-07 07:43:00,33.0,29.0,29.93,North,2,13.0,22.0,85,0.00,,,0.08,,2013-03-07 12:43:00,
2013-03-07 07:52:00,33.0,30.0,29.93,North,8,6.0,14.0,89,0.00,,,0.08,,2013-03-07 12:52:00,
2013-03-07 08:02:00,32.0,30.0,29.93,North,8,7.0,16.0,91,0.00,,,0.08,,2013-03-07 13:02:00,
2013-03-07 08:12:00,32.0,30.0,29.93,North,8,7.0,16.0,91,0.00,,,0.08,,2013-03-07 13:12:00,
2013-03-07 08:22:00,32.0,30.0,29.93,NNE,20,7.0,20.0,92,0.01,,,0.09,,2013-03-07 13:22:00,
2013-03-07 08:32:00,32.0,30.0,29.94,NNE,31,5.0,14.0,93,0.01,,,0.09,,2013-03-07 13:32:00,
2013-03-07 08:42:00,32.0,30.0,29.94,NNE,31,5.0,14.0,93,0.01,,,0.09,,2013-03-07 13:42:00,
2013-03-07 08:52:00,33.0,31.0,29.93,North,8,4.0,12.0,93,0.01,,,0.09,,2013-03-07 13:52:00,
2013-03-07 09:02:00,33.0,31.0,29.93,North,0,3.0,13.0,93,0.01,,,0.09,,2013-03-07 14:02:00,
2013-03-07 09:12:00,33.0,31.0,29.93,North,0,3.0,13.0,93,0.01,,,0.09,,2013-03-07 14:12:00,
2013-03-07 09:23:00,33.0,31.0,29.93,North,0,8.0,13.0,91,0.00,,,0.09,,2013-03-07 14:23:00,
2013-03-07 09:33:00,34.0,31.0,29.94,North,359,7.0,14.0,88,0.00,,,0.09,,2013-03-07 14:33:00,
2013-03-07 09:42:00,34.0,31.0,29.94,North,359,7.0,14.0,88,0.00,,,0.09,,2013-03-07 14:42:00,
2013-03-07 09:53:00,34.0,31.0,29.94,North,353,5.0,13.0,89,0.00,,,0.09,,2013-03-07 14:53:00,
2013-03-07 10:03:00,34.0,31.0,29.94,North,0,5.0,14.0,90,0.01,,,0.10,,2013-03-07 15:03:00,
2013-03-07 10:12:00,34.0,31.0,29.94,North,0,5.0,14.0,90,0.01,,,0.10,,2013-03-07 15:12:00,
2013-03-07 10:23:00,34.0,31.0,29.94,NNE,17,5.0,13.0,90,0.01,,,0.10,,2013-03-07 15:23:00,
2013-03-07 10:32:00,34.0,31.0,29.94,North,0,4.0,13.0,88,0.01,,,0.10,,2013-03-07 15:32:00,
2013-03-07 10:42:00,34.0,31.0,29.94,North,0,4.0,13.0,88,0.01,,,0.10,,2013-03-07 15:42:00,
2013-03-07 10:52:00,34.0,31.0,29.95,NNW,347,4.0,14.0,88,0.01,,,0.10,,2013-03-07 15:52:00,
2013-03-07 11:02:00,34.0,31.0,29.95,NNW,341,3.0,12.0,89,0.00,,,0.10,,2013-03-07 16:02:00,
2013-03-07 11:13:00,34.0,31.0,29.95,NNW,341,3.0,12.0,89,0.00,,,0.10,,2013-03-07 16:13:00,
2013-03-07 11:23:00,35.0,32.0,29.95,NNE,28,4.0,12.0,88,0.00,,,0.10,,2013-03-07 16:23:00,
2013-03-07 11:33:00,35.0,31.0,29.95,NNE,18,6.0,14.0,85,0.00,,,0.10,,2013-03-07 16:33:00,
2013-03-07 11:43:00,35.0,31.0,29.95,NNE,18,6.0,14.0,85,0.00,,,0.10,,2013-03-07 16:43:00,
2013-03-07 11:53:00,36.0,31.0,29.95,North,357,5.0,13.0,83,0.00,,,0.10,,2013-03-07 16:53:00,
2013-03-07 12:02:00,36.0,31.0,29.95,North,354,3.0,12.0,83,0.00,,,0.10,,2013-03-07 17:02:00,
2013-03-07 12:12:00,36.0,31.0,29.95,North,354,3.0,12.0,83,0.00,,,0.10,,2013-03-07 17:12:00,
2013-03-07 12:22:00,36.0,31.0,29.96,North,11,9.0,17.0,81,0.00,,,0.10,,2013-03-07 17:22:00,
2013-03-07 12:33:00,36.0,31.0,29.95,North,356,6.0,10.0,81,0.00,,,0.10,,2013-03-07 17:33:00,
2013-03-07 12:43:00,36.0,31.0,29.95,North,356,6.0,10.0,81,0.00,,,0.10,,2013-03-07 17:43:00,
2013-03-07 12:53:00,36.0,31.0,29.95,North,10,8.0,16.0,81,0.00,,,0.09,,2013-03-07 17:53:00,
2013-03-07 13:03:00,37.0,32.0,29.94,North,5,6.0,12.0,81,0.00,,,0.09,,2013-03-07 18:03:00,
2013-03-07 13:12:00,37.0,32.0,29.94,North,5,6.0,12.0,81,0.00,,,0.09,,2013-03-07 18:12:00,
2013-03-07 13:22:00,37.0,32.0,29.95,NNW,341,6.0,14.0,82,0.00,,,0.09,,2013-03-07 18:22:00,
2013-03-07 13:42:00,37.0,32.0,29.95,NNE,18,7.0,13.0,81,0.00,,,0.09,,2013-03-07 18:42:00,
2013-03-07 13:52:00,37.0,32.0,29.95,NNW,342,6.0,13.0,81,0.00,,,0.09,,2013-03-07 18:52:00,
2013-03-07 14:03:00,37.0,31.0,29.95,North,8,6.0,13.0,80,0.00,,,0.09,,2013-03-07 19:03:00,
2013-03-07 14:12:00,37.0,31.0,29.95,North,358,4.0,12.0,80,0.00,,,0.09,,2013-03-07 19:12:00,
2013-03-07 14:23:00,37.0,31.0,29.95,North,358,4.0,12.0,80,0.00,,,0.09,,2013-03-07 19:23:00,
2013-03-07 14:35:00,37.0,31.0,29.96,NNE,12,9.0,16.0,80,0.00,,,0.09,,2013-03-07 19:35:00,
2013-03-07 14:43:00,37.0,31.0,29.96,NNE,12,9.0,16.0,80,0.00,,,0.09,,2013-03-07 19:43:00,
2013-03-07 14:52:00,37.0,32.0,29.96,North,354,3.0,12.0,81,0.00,,,0.09,,2013-03-07 19:52:00,
2013-03-07 15:02:00,37.0,33.0,29.96,North,4,2.0,12.0,84,0.00,,,0.09,,2013-03-07 20:02:00,
2013-03-07 15:13:00,37.0,33.0,29.96,North,4,2.0,12.0,84,0.00,,,0.09,,2013-03-07 20:13:00,
2013-03-07 15:22:00,36.0,32.0,29.97,North,0,5.0,12.0,85,0.00,,,0.09,,2013-03-07 20:22:00,
2013-03-07 15:33:00,36.0,32.0,29.97,North,353,7.0,14.0,86,0.00,,,0.09,,2013-03-07 20:33:00,
2013-03-07 15:43:00,36.0,32.0,29.97,North,353,7.0,14.0,86,0.00,,,0.09,,2013-03-07 20:43:00,
2013-03-07 15:53:00,36.0,32.0,29.97,North,353,7.0,18.0,86,0.00,,,0.09,,2013-03-07 20:53:00,
2013-03-07 16:03:00,36.0,32.0,29.98,North,353,3.0,12.0,85,0.00,,,0.09,,2013-03-07 21:03:00,
2013-03-07 16:12:00,36.0,32.0,29.98,North,353,3.0,12.0,85,0.00,,,0.09,,2013-03-07 21:12:00,
2013-03-07 16:22:00,36.0,32.0,29.98,North,11,5.0,16.0,85,0.00,,,0.09,,2013-03-07 21:22:00,
2013-03-07 16:33:00,36.0,32.0,29.98,NNW,346,7.0,12.0,84,0.00,,,0.09,,2013-03-07 21:33:00,
2013-03-07 16:43:00,36.0,32.0,29.98,NNW,346,7.0,12.0,84,0.00,,,0.09,,2013-03-07 21:43:00,
2013-03-07 16:52:00,36.0,32.0,29.98,North,353,5.0,12.0,84,0.00,,,0.09,,2013-03-07 21:52:00,
2013-03-07 17:02:00,36.0,32.0,29.98,NNW,339,5.0,14.0,84,0.00,,,0.09,,2013-03-07 22:02:00,
2013-03-07 17:12:00,36.0,32.0,29.98,NNW,339,5.0,14.0,84,0.00,,,0.09,,2013-03-07 22:12:00,
2013-03-07 17:22:00,35.0,31.0,29.99,North,1,9.0,20.0,84,0.00,,,0.09,,2013-03-07 22:22:00,
2013-03-07 17:32:00,35.0,31.0,29.99,NNW,343,5.0,14.0,85,0.00,,,0.09,,2013-03-07 22:32:00,
2013-03-07 17:42:00,35.0,31.0,29.99,NNW,343,5.0,14.0,85,0.00,,,0.09,,2013-03-07 22:42:00,
2013-03-07 17:54:00,35.0,31.0,29.99,North,1,5.0,20.0,85,0.00,,,0.09,,2013-03-07 22:54:00,
2013-03-07 18:03:00,35.0,30.0,30.00,NNE,26,3.0,12.0,83,0.00,,,0.09,,2013-03-07 23:03:00,
2013-03-07 18:13:00,35.0,30.0,30.00,NNE,26,3.0,12.0,83,0.00,,,0.09,,2013-03-07 23:13:00,
2013-03-07 18:22:00,35.0,30.0,30.00,NNW,338,7.0,15.0,83,0.00,,,0.09,,2013-03-07 23:22:00,
2013-03-07 18:33:00,35.0,31.0,30.00,NNW,333,7.0,13.0,84,0.00,,,0.09,,2013-03-07 23:33:00,
2013-03-07 18:43:00,35.0,31.0,30.00,NNW,333,7.0,13.0,84,0.00,,,0.09,,2013-03-07 23:43:00,
2013-03-07 18:53:00,34.0,30.0,30.00,NNW,335,6.0,16.0,84,0.00,,,0.09,,2013-03-07 23:53:00,
2013-03-07 19:04:00,34.0,30.0,30.01,NNW,339,9.0,17.0,85,0.00,,,0.09,,2013-03-08 00:04:00,
2013-03-07 19:13:00,34.0,30.0,30.01,NNW,339,9.0,17.0,85,0.00,,,0.09,,2013-03-08 00:13:00,
2013-03-07 19:23:00,34.0,31.0,30.01,North,349,6.0,15.0,88,0.00,,,0.09,,2013-03-08 00:23:00,
2013-03-07 19:34:00,33.0,30.0,30.01,NNW,339,5.0,13.0,90,0.00,,,0.09,,2013-03-08 00:34:00,
2013-03-07 19:43:00,33.0,30.0,30.01,NNW,339,5.0,13.0,90,0.00,,,0.09,,2013-03-08 00:43:00,
2013-03-07 19:52:00,33.0,31.0,30.01,NNW,346,6.0,12.0,92,0.00,,,0.09,,2013-03-08 00:52:00,
2013-03-07 20:02:00,33.0,31.0,30.01,NNW,346,4.0,12.0,92,0.00,,,0.09,,2013-03-08 01:02:00,
2013-03-07 20:11:00,33.0,31.0,30.01,NNW,346,4.0,12.0,92,0.00,,,0.09,,2013-03-08 01:11:00,
2013-03-07 20:21:00,33.0,31.0,30.01,North,354,5.0,13.0,93,0.00,,,0.09,,2013-03-08 01:21:00,
2013-03-07 20:33:00,33.0,31.0,30.01,NNW,346,5.0,16.0,94,0.01,,,0.10,,2013-03-08 01:33:00,
2013-03-07 20:42:00,33.0,31.0,30.01,NNW,346,5.0,16.0,94,0.01,,,0.10,,2013-03-08 01:42:00,
2013-03-07 20:52:00,33.0,31.0,30.01,North,353,6.0,12.0,94,0.01,,,0.10,,2013-03-08 01:52:00,
2013-03-07 21:01:00,33.0,32.0,30.01,NNW,348,5.0,14.0,95,0.01,,,0.10,,2013-03-08 02:01:00,
2013-03-07 21:12:00,33.0,32.0,30.01,North,354,3.0,13.0,95,0.01,,,0.10,,2013-03-08 02:12:00,
2013-03-07 21:22:00,33.0,32.0,30.01,North,354,3.0,13.0,95,0.01,,,0.10,,2013-03-08 02:22:00,
2013-03-07 21:32:00,33.0,32.0,30.01,NNW,346,5.0,12.0,95,0.00,,,0.10,,2013-03-08 02:32:00,
2013-03-07 21:42:00,33.0,32.0,30.01,NNW,346,5.0,12.0,95,0.00,,,0.10,,2013-03-08 02:42:00,
2013-03-07 21:52:00,32.0,31.0,30.00,North,349,5.0,9.0,96,0.00,,,0.10,,2013-03-08 02:52:00,
2013-03-07 22:02:00,32.0,31.0,30.00,NNW,336,3.0,16.0,97,0.01,,,0.11,,2013-03-08 03:02:00,
2013-03-07 22:12:00,32.0,31.0,30.00,NNW,336,3.0,16.0,97,0.01,,,0.11,,2013-03-08 03:12:00,
2013-03-07 22:22:00,32.0,32.0,30.00,NNW,336,5.0,13.0,98,0.01,,,0.11,,2013-03-08 03:22:00,
2013-03-07 22:32:00,32.0,32.0,30.00,NNW,330,5.0,12.0,98,0.01,,,0.11,,2013-03-08 03:32:00,
2013-03-07 22:43:00,32.0,32.0,30.00,NNW,330,5.0,12.0,98,0.01,,,0.11,,2013-03-08 03:43:00,
2013-03-07 22:52:00,32.0,32.0,30.00,North,2,5.0,8.0,98,0.01,,,0.11,,2013-03-08 03:52:00,
2013-03-07 23:02:00,32.0,32.0,29.99,NNW,333,5.0,8.0,99,0.00,,,0.11,,2013-03-08 04:02:00,
2013-03-07 23:11:00,32.0,32.0,29.99,NNW,335,6.0,12.0,99,0.00,,,0.11,,2013-03-08 04:11:00,
2013-03-07 23:22:00,32.0,32.0,29.99,NNW,335,6.0,12.0,99,0.00,,,0.11,,2013-03-08 04:22:00,
2013-03-07 23:32:00,32.0,32.0,29.99,NNW,342,3.0,8.0,99,0.00,,,0.11,,2013-03-08 04:32:00,
2013-03-07 23:42:00,32.0,32.0,29.99,NNW,342,3.0,8.0,99,0.00,,,0.11,,2013-03-08 04:42:00,
2013-03-07 23:52:00,32.0,32.0,29.99,NNW,344,2.0,12.0,99,0.00,,,0.10,,2013-03-08 04:52:00,